Weather History for Carmi, IL

Change the Weather History Date:

Friday, March 29, 2013

  Actual Average (KEVV) Record (KEVV)
Temperature  
Mean Temperature 48 °F 50 °F  
Max Temperature 55 °F 62 °F 82 °F (1963)
Min Temperature 39 °F 39 °F 23 °F (1955)
Degree Days  
Heating Degree Days 18 15  
Month to date heating degree days 561  
Since 1 July heating degree days 4135  
Cooling Degree Days 0 0  
Month to date cooling degree days 0  
Year to date cooling degree days 0  
Moisture  
Dew Point 43 °F    
Average Humidity 82    
Maximum Humidity 99    
Minimum Humidity 65    
Precipitation  
Precipitation 0.01 in 0.15 in 1.44 in (1985)
Month to date precipitation 3.95  
Year to date precipitation 10.22  
Snow  
Snow 0.00 in 0.00 in 2.80 in (1970)
Month to date snowfall 1.0  
Since 1 July snowfall 11.7  
Snow Depth -    
Sea Level Pressure  
Sea Level Pressure 30.25 in    
Wind  
Wind Speed 5 mph (ESE)    
Max Wind Speed 12 mph    
Max Gust Speed -    
Visibility 8 miles    
Events Fog , Rain    
T = Trace of Precipitation, MM = Missing Value Source: NWS Daily Summary

Daily Weather History Graph

Daily Weather History Graph

Search for Another Location

Airport:

Trip Planner

Search our weather history database for the weather conditions in past years. The results will help you decide how hot, cold, wet, or windy it might be!

Date:

Astronomy

Mar. 29, 2013 Rise Set
Actual Time 6:41 AM CDT 7:13 PM CDT
Civil Twilight 6:15 AM CDT 7:39 PM CDT
Nautical Twilight 5:44 AM CDT 8:10 PM CDT
Astronomical Twilight 5:12 AM CDT 8:42 PM CDT
Moon 10:09 PM CDT (3/29) 7:53 AM CDT (3/29)
Length of Visible Light 13h 24m
Length of Day
12h 31m
Waning Gibbous, 93% of the Moon is Illuminated
Mar 29
Waning Gibbous
Apr 2
Last Quarter
Apr 10
New
Apr 18
First Quarter
Apr 25
Full

Hourly Weather History & Observations

Time (CDT) Temp. Windchill Dew Point Humidity Pressure Visibility Wind Dir Wind Speed Gust Speed Precip Events Conditions
12:15 AM 46.4 °F 43.5 °F 36.5 °F 68% 30.29 in 10.0 mi East 5.8 mph - N/A   Overcast
12:35 AM 46.0 °F 43.9 °F 37.6 °F 72% 30.29 in 10.0 mi East 4.6 mph - N/A   Overcast
12:55 AM 45.5 °F 44.2 °F 37.4 °F 73% 30.29 in 10.0 mi East 3.5 mph - N/A   Overcast
1:15 AM 46.6 °F - 37.0 °F 69% 30.29 in 10.0 mi East 4.6 mph - N/A   Overcast
1:55 AM 46.6 °F - 35.8 °F 66% 30.29 in 10.0 mi ENE 5.8 mph - N/A   Overcast
2:15 AM 46.4 °F 43.5 °F 35.8 °F 67% 30.29 in 10.0 mi ENE 5.8 mph - N/A   Overcast
2:35 AM 46.9 °F - 35.8 °F 65% 30.29 in 10.0 mi East 3.5 mph - N/A   Overcast
2:55 AM 46.4 °F 45.2 °F 37.2 °F 70% 30.29 in 10.0 mi ESE 3.5 mph - N/A   Overcast
3:35 AM 45.7 °F 42.7 °F 37.2 °F 72% 30.28 in 10.0 mi SSE 5.8 mph - N/A Rain Light Rain
3:55 AM 45.5 °F 42.5 °F 37.0 °F 72% 30.28 in 10.0 mi SE 5.8 mph - N/A Rain Light Rain
4:15 AM 45.3 °F 42.3 °F 38.5 °F 77% 30.27 in 10.0 mi ESE 5.8 mph - N/A Rain Rain
4:35 AM 44.8 °F 41.0 °F 38.3 °F 78% 30.27 in 10.0 mi ESE 6.9 mph - N/A   Drizzle
4:55 AM 44.6 °F 42.2 °F 38.7 °F 80% 30.27 in 10.0 mi ESE 4.6 mph - N/A   Light Drizzle
5:15 AM 44.6 °F 43.1 °F 38.3 °F 79% 30.27 in 10.0 mi SE 3.5 mph - N/A Rain Light Rain
5:35 AM 44.6 °F - 39.7 °F 83% 30.27 in 10.0 mi Calm Calm - N/A   Drizzle
5:55 AM 44.2 °F 41.8 °F 39.2 °F 82% 30.27 in 7.0 mi ESE 4.6 mph - N/A   Drizzle
6:15 AM 44.1 °F 40.8 °F 39.0 °F 82% 30.27 in 7.0 mi SE 5.8 mph - 0.01 in   Drizzle
6:35 AM 43.9 °F 41.3 °F 38.7 °F 82% 30.27 in 7.0 mi ESE 4.6 mph - 0.01 in Rain Light Rain
6:55 AM 43.9 °F 42.3 °F 39.6 °F 85% 30.28 in 7.0 mi ESE 3.5 mph - 0.01 in   Drizzle
7:15 AM 43.7 °F 40.3 °F 39.6 °F 85% 30.28 in 7.0 mi SE 5.8 mph - N/A   Light Drizzle
7:35 AM 43.9 °F 39.3 °F 39.6 °F 85% 30.28 in 7.0 mi SE 8.1 mph - N/A   Light Drizzle
7:55 AM 43.9 °F 39.3 °F 39.9 °F 86% 30.28 in 5.0 mi SE 8.1 mph - N/A Rain Light Rain
8:15 AM 43.7 °F 38.6 °F 40.1 °F 87% 30.27 in 7.0 mi SE 9.2 mph - N/A   Overcast
8:35 AM 44.1 °F 39.5 °F 40.5 °F 87% 30.28 in 7.0 mi SE 8.1 mph - N/A   Overcast
8:55 AM 44.2 °F 41.0 °F 41.4 °F 90% 30.28 in 7.0 mi ESE 5.8 mph - N/A   Overcast
9:15 AM 45.0 °F 41.8 °F 41.7 °F 88% 30.28 in 7.0 mi ESE 5.8 mph - N/A   Overcast
9:35 AM 45.7 °F 42.7 °F 42.3 °F 88% 30.28 in 7.0 mi ESE 5.8 mph - N/A   Overcast
9:55 AM 46.4 °F 42.9 °F 42.8 °F 87% 30.28 in 7.0 mi SE 6.9 mph - N/A   Overcast
10:15 AM 47.1 °F - 43.0 °F 86% 30.28 in 7.0 mi SE 6.9 mph - N/A   Overcast
10:35 AM 47.8 °F - 43.7 °F 86% 30.28 in 7.0 mi SE 6.9 mph - N/A   Overcast
10:55 AM 48.7 °F - 44.4 °F 85% 30.28 in 7.0 mi SE 6.9 mph - N/A   Overcast
11:15 AM 49.8 °F - 45.0 °F 83% 30.28 in 10.0 mi SE 5.8 mph - N/A   Overcast
11:35 AM 50.7 °F - 45.7 °F 83% 30.27 in 10.0 mi ESE 8.1 mph - N/A   Overcast
11:55 AM 51.8 °F - 45.7 °F 80% 30.27 in 10.0 mi SE 11.5 mph - N/A   Overcast
12:15 PM 52.3 °F - 45.7 °F 78% 30.27 in 10.0 mi SE 11.5 mph - N/A   Mostly Cloudy
12:35 PM 52.7 °F - 45.7 °F 77% 30.26 in 10.0 mi ESE 11.5 mph - N/A   Overcast
12:55 PM 52.9 °F - 45.9 °F 77% 30.26 in 10.0 mi SE 8.1 mph - N/A   Overcast
1:15 PM 53.1 °F - 46.2 °F 78% 30.25 in 10.0 mi SE 9.2 mph - N/A   Overcast
1:35 PM 53.2 °F - 46.0 °F 77% 30.25 in 10.0 mi SSE 6.9 mph - N/A   Overcast
1:55 PM 53.8 °F - 46.6 °F 77% 30.24 in 10.0 mi ESE 6.9 mph - N/A   Overcast
2:15 PM 53.2 °F - 46.4 °F 78% 30.24 in 10.0 mi ESE 5.8 mph - N/A   Overcast
2:35 PM 53.2 °F - 46.4 °F 78% 30.23 in 10.0 mi SE 4.6 mph - N/A   Overcast
2:55 PM 52.9 °F - 46.0 °F 78% 30.23 in 10.0 mi SE 5.8 mph - N/A   Overcast
3:15 PM 53.1 °F - 46.2 °F 78% 30.22 in 10.0 mi SE 4.6 mph - N/A   Overcast
3:35 PM 53.6 °F - 46.2 °F 76% 30.22 in 10.0 mi SE 5.8 mph - N/A   Overcast
3:55 PM 53.8 °F - 46.6 °F 77% 30.22 in 10.0 mi ESE 5.8 mph - N/A   Overcast
4:15 PM 53.8 °F - 46.4 °F 76% 30.22 in 10.0 mi SE 4.6 mph - N/A   Overcast
4:35 PM 54.7 °F - 46.6 °F 74% 30.22 in 10.0 mi SE 3.5 mph - N/A   Mostly Cloudy
4:55 PM 55.0 °F - 46.9 °F 74% 30.21 in 10.0 mi East 5.8 mph - N/A   Mostly Cloudy
5:15 PM 54.5 °F - 46.4 °F 74% 30.21 in 10.0 mi East 5.8 mph - N/A   Overcast
5:35 PM 54.0 °F - 46.4 °F 76% 30.21 in 10.0 mi East 3.5 mph - N/A   Mostly Cloudy
5:55 PM 53.6 °F - 45.9 °F 75% 30.22 in 10.0 mi Calm Calm - N/A   Mostly Cloudy
6:15 PM 53.1 °F - 46.6 °F 79% 30.22 in 10.0 mi SSE 3.5 mph - N/A   Overcast
6:35 PM 52.7 °F - 46.9 °F 81% 30.22 in 10.0 mi SE 4.6 mph - N/A   Overcast
6:55 PM 52.0 °F - 46.9 °F 83% 30.22 in 7.0 mi SE 5.8 mph - N/A   Overcast
7:15 PM 50.9 °F - 46.6 °F 85% 30.22 in 10.0 mi SE 5.8 mph - N/A   Mostly Cloudy
7:35 PM 50.0 °F - 46.6 °F 88% 30.22 in 7.0 mi SE 4.6 mph - N/A   Scattered Clouds
7:55 PM 49.1 °F - 46.4 °F 90% 30.22 in 7.0 mi SE 5.8 mph - N/A   Mostly Cloudy
8:15 PM 48.4 °F - 46.2 °F 92% 30.22 in 7.0 mi SE 5.8 mph - N/A   Mostly Cloudy
8:35 PM 46.8 °F - 44.6 °F 92% 30.22 in 5.0 mi West 5.8 mph - N/A   Scattered Clouds
8:55 PM 48.2 °F - 45.7 °F 91% 30.23 in 7.0 mi Calm Calm - N/A   Clear
9:15 PM 46.0 °F 44.8 °F 44.2 °F 93% 30.23 in 5.0 mi SE 3.5 mph - N/A   Clear
9:35 PM 44.1 °F - 42.6 °F 95% 30.24 in 3.0 mi Calm Calm - N/A   Clear
9:55 PM 44.6 °F - 43.5 °F 96% 30.24 in 3.0 mi Calm Calm - N/A   Clear
10:15 PM 43.9 °F - 43.0 °F 97% 30.24 in 2.0 mi Calm Calm - N/A   Clear
10:35 PM 43.0 °F - 42.3 °F 97% 30.24 in 0.2 mi Calm Calm - N/A Fog Fog
10:55 PM 41.2 °F - 40.6 °F 98% 30.24 in 0.2 mi Calm Calm - N/A Fog Fog
11:15 PM 40.5 °F 38.4 °F 40.1 °F 99% 30.23 in 0.2 mi NW 3.5 mph - N/A Fog Fog
11:35 PM 40.3 °F - 40.1 °F 99% 30.23 in 0.2 mi Calm Calm - N/A Fog Fog
11:55 PM 39.7 °F - 39.4 °F 99% 30.22 in 0.2 mi Calm Calm - N/A Fog Fog